Weather History for Marianna, FL

Change the Weather History Date:

Friday, January 25, 2013

  Actual Average Record
Temperature  
Mean Temperature 60 °F 51 °F  
Max Temperature 73 °F 62 °F 80 °F (2012)
Min Temperature 47 °F 40 °F 21 °F (2003)
Degree Days  
Heating Degree Days 5    
Month to date heating degree days 211  
Since 1 July heating degree days 702  
Cooling Degree Days 0    
Month to date cooling degree days 46  
Year to date cooling degree days 46  
Growing Degree Days 9 (Base 50)    
Moisture  
Dew Point 47 °F    
Average Humidity 67    
Maximum Humidity 93    
Minimum Humidity 41    
Precipitation  
Precipitation 0.00 in 0.19 in 0.65 in (2002)
Month to date precipitation 0.51 3.91  
Year to date precipitation 0.51 3.91  
Sea Level Pressure  
Sea Level Pressure 30.24 in    
Wind  
Wind Speed 7 mph (South)    
Max Wind Speed 17 mph    
Max Gust Speed 24 mph    
Visibility 10 miles    
Events      
T = Trace of Precipitation, MM = Missing Value Source: NWS Daily Summary

Daily Weather History Graph

Daily Weather History Graph

Search for Another Location

Airport:

Trip Planner

Search our weather history database for the weather conditions in past years. The results will help you decide how hot, cold, wet, or windy it might be!

Date:

Astronomy

Jan. 25, 2013 Rise Set
Actual Time 6:35 AM CST 5:10 PM CST
Civil Twilight 6:10 AM CST 5:36 PM CST
Nautical Twilight 5:41 AM CST 6:05 PM CST
Astronomical Twilight 5:12 AM CST 6:34 PM CST
Moon 4:06 PM CST (1/25) 5:14 AM CST (1/25)
Length of Visible Light 11h 25m
Length of Day
10h 34m
Waxing Gibbous, 98% of the Moon is Illuminated
Jan 25
Waxing Gibbous
Jan 26
Full
Feb 3
Last Quarter
Feb 10
New
Feb 17
First Quarter

Hourly Weather History & Observations

Time (CST) Temp. Dew Point Humidity Pressure Visibility Wind Dir Wind Speed Gust Speed Precip Events Conditions
12:53 AM 51.1 °F 48.0 °F 89% 30.29 in 10.0 mi Calm Calm - N/A   Overcast
1:53 AM 53.1 °F 48.0 °F 83% 30.29 in 9.0 mi NE 3.5 mph - N/A   Overcast
2:53 AM 52.0 °F 46.0 °F 80% 30.28 in 7.0 mi ENE 3.5 mph - N/A   Overcast
3:53 AM 52.0 °F 45.0 °F 77% 30.27 in 8.0 mi East 5.8 mph - N/A   Overcast
4:53 AM 51.1 °F 43.0 °F 74% 30.27 in 9.0 mi Calm Calm - N/A   Overcast
5:53 AM 48.9 °F 41.0 °F 74% 30.31 in 10.0 mi NNE 4.6 mph - N/A   Mostly Cloudy
6:53 AM 46.9 °F 37.9 °F 71% 30.32 in 10.0 mi ENE 3.5 mph - N/A   Partly Cloudy
7:53 AM 51.1 °F 39.0 °F 63% 30.33 in 10.0 mi East 5.8 mph - N/A   Clear
8:53 AM 55.0 °F 43.0 °F 64% 30.33 in 10.0 mi Variable 5.8 mph - N/A   Clear
9:53 AM 60.1 °F 46.0 °F 60% 30.32 in 10.0 mi Variable 4.6 mph - N/A   Clear
10:53 AM 64.0 °F 48.0 °F 56% 30.27 in 10.0 mi SSE 6.9 mph - N/A   Clear
11:53 AM 66.9 °F 50.0 °F 54% 30.23 in 10.0 mi SSW 9.2 mph - N/A   Clear
12:53 PM 70.0 °F 48.9 °F 47% 30.21 in 10.0 mi SSW 12.7 mph 17.3 mph N/A   Clear
1:53 PM 72.0 °F 46.9 °F 41% 30.19 in 10.0 mi SW 13.8 mph 20.7 mph N/A   Scattered Clouds
2:53 PM 71.1 °F 46.0 °F 41% 30.19 in 10.0 mi SW 15.0 mph - N/A   Scattered Clouds
3:53 PM 70.0 °F 46.0 °F 42% 30.18 in 10.0 mi SW 13.8 mph - N/A   Clear
4:53 PM 66.9 °F 45.0 °F 45% 30.18 in 10.0 mi SW 11.5 mph - N/A   Clear
5:53 PM 64.0 °F 48.0 °F 56% 30.17 in 10.0 mi SSW 10.4 mph - N/A   Clear
6:53 PM 63.0 °F 51.1 °F 65% 30.18 in 10.0 mi SSW 8.1 mph - N/A   Clear
7:53 PM 60.1 °F 53.1 °F 78% 30.19 in 10.0 mi SW 5.8 mph - N/A   Clear
8:53 PM 57.9 °F 53.1 °F 84% 30.19 in 10.0 mi SSW 5.8 mph - N/A   Clear
9:53 PM 55.9 °F 53.1 °F 90% 30.20 in 10.0 mi SSW 3.5 mph - N/A   Clear
10:53 PM 55.0 °F 53.1 °F 93% 30.20 in 9.0 mi SSW 5.8 mph - N/A   Clear
11:53 PM 55.0 °F 53.1 °F 93% 30.19 in 10.0 mi SSW 6.9 mph - N/A   Clear